Time,TemperatureF,DewpointF,PressureIn,WindDirection,WindDirectionDegrees,WindSpeedMPH,WindSpeedGustMPH,Humidity,HourlyPrecipIn,Conditions,Clouds,dailyrainin,SoftwareType,DateUTC
2013-08-06 00:12:00,79.0,47.0,29.28,SSW,209,1.0,-999.0,33,-99.99,,,0.00,,2013-08-06 07:12:00,
2013-08-06 00:22:00,79.0,47.0,29.28,SSW,209,1.0,-999.0,33,-99.99,,,0.00,,2013-08-06 07:22:00,
2013-08-06 00:32:00,79.0,47.0,29.28,SSW,209,1.0,-999.0,33,-99.99,,,0.00,,2013-08-06 07:32:00,
2013-08-06 00:43:00,79.0,47.0,29.28,SSW,209,1.0,-999.0,33,-99.99,,,0.00,,2013-08-06 07:43:00,
2013-08-06 01:11:00,78.0,54.0,29.28,SE,141,3.0,-999.0,44,0.00,,,-99.99,,2013-08-06 08:11:00,
2013-08-06 01:21:00,78.0,54.0,29.28,SE,141,3.0,-999.0,44,0.00,,,-99.99,,2013-08-06 08:21:00,
2013-08-06 01:33:00,78.0,54.0,29.28,SE,141,3.0,-999.0,44,0.00,,,-99.99,,2013-08-06 08:33:00,
2013-08-06 01:43:00,78.0,54.0,29.28,SE,141,3.0,-999.0,44,0.00,,,-99.99,,2013-08-06 08:43:00,
2013-08-06 02:11:00,75.0,50.0,29.29,NE,46,5.0,-999.0,41,0.00,,,0.00,,2013-08-06 09:11:00,
2013-08-06 02:22:00,75.0,50.0,29.29,NE,46,5.0,-999.0,41,0.00,,,0.00,,2013-08-06 09:22:00,
2013-08-06 02:32:00,75.0,50.0,29.29,NE,46,5.0,-999.0,41,0.00,,,0.00,,2013-08-06 09:32:00,
2013-08-06 02:43:00,75.0,50.0,29.29,NE,46,5.0,-999.0,41,0.00,,,0.00,,2013-08-06 09:43:00,
2013-08-06 03:11:00,75.0,52.0,29.28,NW,305,2.0,-999.0,44,0.00,,,0.00,,2013-08-06 10:11:00,
2013-08-06 03:22:00,75.0,52.0,29.28,NW,305,2.0,-999.0,44,0.00,,,0.00,,2013-08-06 10:22:00,
2013-08-06 03:32:00,75.0,52.0,29.28,NW,305,2.0,-999.0,44,0.00,,,0.00,,2013-08-06 10:32:00,
2013-08-06 03:42:00,75.0,52.0,29.28,NW,305,2.0,-999.0,44,0.00,,,0.00,,2013-08-06 10:42:00,
2013-08-06 04:11:00,75.0,52.0,29.29,SE,135,3.0,-999.0,45,0.00,,,0.00,,2013-08-06 11:11:00,
2013-08-06 04:21:00,75.0,52.0,29.29,SE,135,3.0,-999.0,45,0.00,,,0.00,,2013-08-06 11:21:00,
2013-08-06 04:32:00,75.0,52.0,29.29,SE,135,3.0,-999.0,45,0.00,,,0.00,,2013-08-06 11:32:00,
2013-08-06 04:43:00,75.0,52.0,29.29,SE,135,3.0,-999.0,45,0.00,,,0.00,,2013-08-06 11:43:00,
2013-08-06 06:11:00,72.0,51.0,29.30,NW,311,4.0,-999.0,47,-99.99,,,-99.99,,2013-08-06 13:11:00,
2013-08-06 06:22:00,72.0,51.0,29.30,NW,311,4.0,-999.0,47,-99.99,,,-99.99,,2013-08-06 13:22:00,
2013-08-06 06:32:00,72.0,51.0,29.30,NW,311,4.0,-999.0,47,-99.99,,,-99.99,,2013-08-06 13:32:00,
2013-08-06 06:42:00,72.0,51.0,29.30,NW,311,4.0,-999.0,47,-99.99,,,-99.99,,2013-08-06 13:42:00,
2013-08-06 07:22:00,67.0,53.0,29.33,WNW,293,0.0,-999.0,59,0.00,,,0.00,,2013-08-06 14:22:00,
2013-08-06 07:32:00,67.0,53.0,29.33,WNW,293,0.0,-999.0,59,0.00,,,0.00,,2013-08-06 14:32:00,
2013-08-06 07:42:00,67.0,53.0,29.33,WNW,293,0.0,-999.0,59,0.00,,,0.00,,2013-08-06 14:42:00,
2013-08-06 08:22:00,72.0,56.0,29.34,North,359,3.0,-999.0,58,0.00,,,0.00,,2013-08-06 15:22:00,
2013-08-06 08:33:00,72.0,56.0,29.34,North,359,3.0,-999.0,58,0.00,,,0.00,,2013-08-06 15:33:00,
2013-08-06 08:43:00,72.0,56.0,29.34,North,359,3.0,-999.0,58,0.00,,,0.00,,2013-08-06 15:43:00,
2013-08-06 09:22:00,75.0,53.0,29.34,WSW,248,2.0,-999.0,47,0.00,,,-99.99,,2013-08-06 16:22:00,
2013-08-06 09:32:00,75.0,53.0,29.34,WSW,248,2.0,-999.0,47,0.00,,,-99.99,,2013-08-06 16:32:00,
2013-08-06 09:42:00,75.0,53.0,29.34,WSW,248,2.0,-999.0,47,0.00,,,-99.99,,2013-08-06 16:42:00,
2013-08-06 10:11:00,81.0,53.0,29.35,West,260,5.0,-999.0,38,0.00,,,0.00,,2013-08-06 17:11:00,
2013-08-06 10:21:00,81.0,53.0,29.35,West,260,5.0,-999.0,38,0.00,,,0.00,,2013-08-06 17:21:00,
2013-08-06 10:32:00,81.0,53.0,29.35,West,260,5.0,-999.0,38,0.00,,,0.00,,2013-08-06 17:32:00,
2013-08-06 10:43:00,81.0,53.0,29.35,West,260,5.0,-999.0,38,0.00,,,0.00,,2013-08-06 17:43:00,
2013-08-06 11:11:00,84.0,52.0,29.35,West,276,4.0,-999.0,33,0.00,,,0.00,,2013-08-06 18:11:00,
2013-08-06 11:22:00,84.0,52.0,29.35,West,276,4.0,-999.0,33,0.00,,,0.00,,2013-08-06 18:22:00,
2013-08-06 11:32:00,84.0,52.0,29.35,West,276,4.0,-999.0,33,0.00,,,0.00,,2013-08-06 18:32:00,
2013-08-06 11:43:00,84.0,52.0,29.35,West,276,4.0,-999.0,33,0.00,,,0.00,,2013-08-06 18:43:00,
2013-08-06 12:11:00,87.0,52.0,29.34,West,269,5.0,-999.0,31,0.00,,,0.00,,2013-08-06 19:11:00,
2013-08-06 12:21:00,87.0,52.0,29.34,West,269,5.0,-999.0,31,0.00,,,0.00,,2013-08-06 19:21:00,
2013-08-06 12:32:00,87.0,52.0,29.34,West,269,5.0,-999.0,31,0.00,,,0.00,,2013-08-06 19:32:00,
2013-08-06 12:42:00,87.0,52.0,29.34,West,269,5.0,-999.0,31,0.00,,,0.00,,2013-08-06 19:42:00,
2013-08-06 13:22:00,90.0,51.0,29.33,West,276,4.0,-999.0,27,0.01,,,0.00,,2013-08-06 20:22:00,
2013-08-06 13:32:00,90.0,51.0,29.33,West,276,4.0,-999.0,27,0.01,,,0.00,,2013-08-06 20:32:00,
2013-08-06 13:43:00,90.0,51.0,29.33,West,276,4.0,-999.0,27,0.01,,,0.00,,2013-08-06 20:43:00,
2013-08-06 15:21:00,94.0,45.0,29.29,SW,225,5.0,-999.0,19,-99.99,,,0.00,,2013-08-06 22:21:00,
2013-08-06 15:32:00,94.0,45.0,29.29,SW,225,5.0,-999.0,19,-99.99,,,0.00,,2013-08-06 22:32:00,
2013-08-06 15:43:00,94.0,45.0,29.29,SW,225,5.0,-999.0,19,-99.99,,,0.00,,2013-08-06 22:43:00,
2013-08-06 16:11:00,94.0,45.0,29.28,WSW,251,6.0,-999.0,19,0.00,,,0.00,,2013-08-06 23:11:00,
2013-08-06 16:22:00,94.0,45.0,29.28,WSW,251,6.0,-999.0,19,0.00,,,0.00,,2013-08-06 23:22:00,
2013-08-06 16:32:00,94.0,45.0,29.28,WSW,251,6.0,-999.0,19,0.00,,,0.00,,2013-08-06 23:32:00,
2013-08-06 16:43:00,94.0,45.0,29.28,WSW,251,6.0,-999.0,19,0.00,,,0.00,,2013-08-06 23:43:00,
2013-08-06 17:11:00,94.0,47.0,29.27,West,266,4.0,-999.0,20,0.00,,,0.00,,2013-08-07 00:11:00,
2013-08-06 17:21:00,94.0,47.0,29.27,West,266,4.0,-999.0,20,0.00,,,0.00,,2013-08-07 00:21:00,
2013-08-06 17:32:00,94.0,47.0,29.27,West,266,4.0,-999.0,20,0.00,,,0.00,,2013-08-07 00:32:00,
2013-08-06 17:43:00,94.0,47.0,29.27,West,266,4.0,-999.0,20,0.00,,,0.00,,2013-08-07 00:43:00,
2013-08-06 18:11:00,94.0,45.0,29.26,West,268,4.0,-999.0,19,0.00,,,0.00,,2013-08-07 01:11:00,
2013-08-06 18:21:00,94.0,45.0,29.26,West,268,4.0,-999.0,19,0.00,,,0.00,,2013-08-07 01:21:00,
2013-08-06 18:32:00,94.0,45.0,29.26,West,268,4.0,-999.0,19,0.00,,,0.00,,2013-08-07 01:32:00,
2013-08-06 18:43:00,94.0,45.0,29.26,West,268,4.0,-999.0,19,0.00,,,0.00,,2013-08-07 01:43:00,
2013-08-06 19:11:00,93.0,45.0,29.26,SW,234,4.0,-999.0,19,0.00,,,0.00,,2013-08-07 02:11:00,
2013-08-06 19:22:00,93.0,45.0,29.26,SW,234,4.0,-999.0,19,0.00,,,0.00,,2013-08-07 02:22:00,
2013-08-06 19:33:00,93.0,45.0,29.26,SW,234,4.0,-999.0,19,0.00,,,0.00,,2013-08-07 02:33:00,
2013-08-06 19:43:00,93.0,45.0,29.26,SW,234,4.0,-999.0,19,0.00,,,0.00,,2013-08-07 02:43:00,
2013-08-06 21:11:00,86.0,49.0,29.28,SSW,193,5.0,-999.0,28,-99.99,,,0.00,,2013-08-07 04:11:00,
2013-08-06 21:21:00,86.0,49.0,29.28,SSW,193,5.0,-999.0,28,-99.99,,,0.00,,2013-08-07 04:21:00,
2013-08-06 21:33:00,86.0,49.0,29.28,SSW,193,5.0,-999.0,28,-99.99,,,0.00,,2013-08-07 04:33:00,
2013-08-06 21:42:00,86.0,49.0,29.28,SSW,193,5.0,-999.0,28,-99.99,,,0.00,,2013-08-07 04:42:00,
2013-08-06 22:11:00,83.0,51.0,29.31,WSW,237,2.0,-999.0,33,0.00,,,0.00,,2013-08-07 05:11:00,
2013-08-06 22:22:00,83.0,51.0,29.31,WSW,237,2.0,-999.0,33,0.00,,,0.00,,2013-08-07 05:22:00,
2013-08-06 22:32:00,83.0,51.0,29.31,WSW,237,2.0,-999.0,33,0.00,,,0.00,,2013-08-07 05:32:00,
2013-08-06 22:43:00,83.0,51.0,29.31,WSW,237,2.0,-999.0,33,0.00,,,0.00,,2013-08-07 05:43:00,
2013-08-06 23:11:00,79.0,52.0,29.32,SSE,163,2.0,-999.0,39,-99.99,,,-99.99,,2013-08-07 06:11:00,
2013-08-06 23:22:00,79.0,52.0,29.32,SSE,163,2.0,-999.0,39,-99.99,,,-99.99,,2013-08-07 06:22:00,
2013-08-06 23:32:00,79.0,52.0,29.32,SSE,163,2.0,-999.0,39,-99.99,,,-99.99,,2013-08-07 06:32:00,
2013-08-06 23:43:00,79.0,52.0,29.32,SSE,163,2.0,-999.0,39,-99.99,,,-99.99,,2013-08-07 06:43:00,